Weather History for Reno, NV

Change the Weather History Date:

Monday, March 18, 2013

  Actual Average Record
Temperature  
Mean Temperature 49 °F 46 °F  
Max Temperature 66 °F 58 °F 77 °F (1947)
Min Temperature 32 °F 34 °F 10 °F (1943)
Degree Days  
Heating Degree Days 16 19  
Month to date heating degree days 289 364  
Since 1 July heating degree days 3773 4002  
Cooling Degree Days 0 0  
Month to date cooling degree days 0 0  
Year to date cooling degree days 0 0  
Moisture  
Dew Point 20 °F    
Average Humidity 36    
Maximum Humidity 59    
Minimum Humidity 13    
Precipitation  
Precipitation 0.00 in 0.02 in 0.66 in (1907)
Month to date precipitation 0.13 0.52  
Year to date precipitation 0.25 2.57  
Snow  
Snow 0.00 in 0.00 in 3.70 in (1980)
Month to date snowfall 0.1 1.4  
Since 1 July snowfall 9.4 20.4  
Snow Depth 0.00 in    
Sea Level Pressure  
Sea Level Pressure 30.03 in    
Wind  
Wind Speed 6 mph (West)    
Max Wind Speed 18 mph    
Max Gust Speed 23 mph    
Visibility 10 miles    
Events      
T = Trace of Precipitation, MM = Missing Value Source: NWS Daily Summary

Daily Weather History Graph

Daily Weather History Graph

Search for Another Location

Airport:

Trip Planner

Search our weather history database for the weather conditions in past years. The results will help you decide how hot, cold, wet, or windy it might be!

Date:

Astronomy

Mar. 18, 2013 Rise Set
Actual Time 7:05 AM PDT 7:09 PM PDT
Civil Twilight 6:38 AM PDT 7:36 PM PDT
Nautical Twilight 6:07 AM PDT 8:07 PM PDT
Astronomical Twilight 5:35 AM PDT 8:39 PM PDT
Moon 11:10 AM PDT (3/18) 1:11 AM PDT (3/18)
Length of Visible Light 12h 57m
Length of Day
12h 04m
Waxing Crescent, 41% of the Moon is Illuminated
Mar 18
Waxing Crescent
Mar 19
First Quarter
Mar 27
Full
Apr 2
Last Quarter
Apr 10
New

Hourly Weather History & Observations

Time (PDT) Temp. Windchill Dew Point Humidity Pressure Visibility Wind Dir Wind Speed Gust Speed Precip Events Conditions
12:55 AM 42.1 °F - 19.9 °F 41% 30.05 in 10.0 mi Calm Calm - N/A   Partly Cloudy
1:55 AM 37.9 °F 33.5 °F 21.0 °F 51% 30.05 in 10.0 mi South 5.8 mph - N/A   Scattered Clouds
2:55 AM 39.9 °F - 19.9 °F 45% 30.04 in 10.0 mi Calm Calm - N/A   Partly Cloudy
3:55 AM 37.0 °F - 19.9 °F 50% 30.04 in 10.0 mi Calm Calm - N/A   Clear
4:55 AM 37.0 °F - 21.0 °F 52% 30.03 in 10.0 mi Calm Calm - N/A   Clear
5:55 AM 35.1 °F - 19.9 °F 54% 30.06 in 10.0 mi Calm Calm - N/A   Clear
6:55 AM 32.0 °F - 19.0 °F 59% 30.08 in 10.0 mi Calm Calm - N/A   Clear
7:55 AM 33.1 °F - 19.9 °F 59% 30.09 in 10.0 mi Calm Calm - N/A   Scattered Clouds
8:55 AM 39.9 °F - 21.9 °F 49% 30.10 in 10.0 mi Calm Calm - N/A   Scattered Clouds
9:55 AM 45.0 °F - 21.9 °F 40% 30.09 in 10.0 mi Calm Calm - N/A   Scattered Clouds
10:55 AM 50.0 °F - 21.9 °F 33% 30.07 in 10.0 mi SSW 3.5 mph - N/A   Mostly Cloudy
11:55 AM 55.0 °F - 19.9 °F 25% 30.05 in 10.0 mi NE 4.6 mph - N/A   Mostly Cloudy
12:55 PM 60.1 °F - 14.0 °F 16% 30.01 in 10.0 mi Calm Calm - N/A   Mostly Cloudy
1:55 PM 63.0 °F - 12.9 °F 14% 29.98 in 10.0 mi South 6.9 mph - N/A   Mostly Cloudy
2:55 PM 64.0 °F - 12.9 °F 14% 29.95 in 10.0 mi Variable 5.8 mph - N/A   Mostly Cloudy
3:55 PM 64.9 °F - 17.1 °F 16% 29.94 in 10.0 mi West 5.8 mph - N/A   Mostly Cloudy
4:55 PM 63.0 °F - 21.0 °F 20% 29.96 in 10.0 mi West 16.1 mph 21.9 mph N/A   Overcast
5:55 PM 61.0 °F - 21.0 °F 21% 29.96 in 10.0 mi West 11.5 mph - N/A   Overcast
6:55 PM 57.9 °F - 21.0 °F 24% 30.01 in 10.0 mi WNW 11.5 mph - N/A   Overcast
7:55 PM 55.9 °F - 19.9 °F 25% 30.01 in 10.0 mi WNW 9.2 mph - N/A   Overcast
8:55 PM 55.0 °F - 19.0 °F 24% 30.01 in 10.0 mi WNW 13.8 mph - N/A   Overcast
9:55 PM 54.0 °F - 23.0 °F 30% 30.03 in 10.0 mi WNW 15.0 mph 20.7 mph N/A   Overcast
10:55 PM 54.0 °F - 19.9 °F 26% 30.03 in 10.0 mi West 6.9 mph - N/A   Overcast
11:55 PM 53.1 °F - 21.0 °F 29% 30.03 in 10.0 mi NW 10.4 mph - N/A   Overcast